EW7244 Weather Reports


time (UTC)temp
C
wind
direction
speed
KPH
gust
KPH
rain 1hr
cm
rain 24hr
cm
rain mn
cm
humidity
%
barometer
mb
20260902104618 25 101 0.0 0.0 0.00 0.00 0.00 58 1014.6
20260902103051 25 148 0.0 0.0 0.00 0.00 0.00 59 1014.8
20260902101554 24 133 0.0 0.0 0.00 0.00 0.00 60 1015.0
20260902100104 23 134 0.0 0.0 0.00 0.00 0.00 61 1015.1
20260902094553 23 106 0.0 0.0 0.00 0.00 0.00 63 1015.1
20260902093046 23 112 0.0 0.0 0.00 0.00 0.00 64 1015.3
20260902091606 22 146 0.0 0.0 0.00 0.00 0.00 66 1015.6
20260902090046 22 105 0.0 0.0 0.00 0.00 0.00 69 1015.6
20260902084538 21 98 0.0 0.0 0.00 0.00 0.00 68 1015.7
20260902083020 21 83 0.0 0.0 0.00 0.00 0.00 68 1015.7
20260902081512 20 120 0.0 0.0 0.00 0.00 0.00 71 1015.7
20260902080055 20 61 0.0 0.0 0.00 0.00 0.00 72 1015.7
20260902074543 20 106 0.0 0.0 0.00 0.00 0.00 74 1015.7
20260902073059 20 121 0.0 0.0 0.00 0.00 0.00 74 1015.7
20260902071551 20 142 0.0 0.0 0.00 0.00 0.00 75 1015.7
20260902070047 20 80 0.0 0.0 0.00 0.00 0.00 77 1015.6
20260902064545 20 113 0.0 0.0 0.00 0.00 0.00 73 1015.6
20260902063057 20 107 0.0 0.0 0.00 0.00 0.00 73 1015.7
20260902061555 19 271 0.0 0.0 0.00 0.00 0.00 74 1015.8
20260902060052 18 270 0.0 0.0 0.00 0.00 0.00 77 1015.7
20260902054542 18 271 0.0 0.0 0.00 0.00 0.00 80 1015.6
20260902053111 17 270 0.0 0.0 0.00 0.00 0.00 82 1015.4
20260902051557 16 270 0.0 0.0 0.00 0.00 0.00 84 1015.3
20260902050054 16 270 0.0 0.0 0.00 0.00 0.00 84 1015.2
20260902044546 16 270 0.0 0.0 0.00 0.00 0.00 84 1015.2
20260902043116 16 270 0.0 0.0 0.00 0.00 0.00 84 1015.3
20260902041552 16 271 0.0 0.0 0.00 0.00 0.00 84 1015.2
20260902040046 16 270 0.0 0.0 0.00 0.00 0.00 84 1015.2
20260902034541 16 270 0.0 0.0 0.00 0.00 0.00 84 1015.2
20260902033023 16 270 0.0 0.0 0.00 0.00 0.00 83 1015.1
20260902031518 17 270 0.0 0.0 0.00 0.00 0.00 82 1015.1
20260902030006 17 270 0.0 0.0 0.00 0.00 0.00 82 1015.1
20260902024600 17 270 0.0 0.0 0.00 0.00 0.00 81 1015.1
20260902023052 17 270 0.0 0.0 0.00 0.00 0.00 80 1015.1
20260902021536 17 270 0.0 0.0 0.00 0.00 0.00 79 1015.0
20260902020054 17 270 0.0 0.0 0.00 0.00 0.00 80 1014.9
20260902014551 17 270 0.0 0.0 0.00 0.00 0.00 81 1015.0
20260902013050 18 270 0.0 0.0 0.00 0.00 0.00 80 1015.1
20260902011555 18 270 0.0 0.0 0.00 0.00 0.00 80 1014.9
20260902010056 18 270 0.0 0.0 0.00 0.00 0.00 81 1015.1
20260902004552 18 270 0.0 0.0 0.00 0.00 0.00 80 1015.0
20260902003049 18 270 0.0 0.0 0.00 0.00 0.00 80 1015.1
20260902001545 17 270 0.0 0.0 0.00 0.00 0.00 81 1015.1
20260902000043 18 270 0.0 0.0 0.00 0.00 0.00 80 1015.2
20260901234546 18 270 0.0 0.0 0.00 0.00 0.00 80 1015.2
20260901233048 18 270 0.0 0.0 0.00 0.00 0.00 79 1015.3
20260901231600 18 270 0.0 0.0 0.00 0.00 0.00 78 1015.2
20260901230100 19 270 0.0 0.0 0.00 0.00 0.00 79 1015.2
20260901224541 19 270 0.0 0.0 0.00 0.00 0.00 79 1015.2
20260901223043 18 270 0.0 0.0 0.00 0.00 0.00 79 1015.1
20260901221601 18 270 0.0 0.0 0.00 0.00 0.00 79 1015.0
20260901220013 18 270 0.0 0.0 0.00 0.00 0.00 78 1014.9
20260901214504 18 270 0.0 0.0 0.00 0.00 0.00 79 1014.8
20260901213102 18 270 0.0 0.0 0.00 0.00 0.00 79 1014.8
20260901211539 18 270 0.0 0.0 0.00 0.00 0.00 78 1014.7
20260901210054 18 270 0.0 0.0 0.00 0.00 0.00 78 1014.6
20260901204600 18 270 0.0 0.0 0.00 0.00 0.00 78 1014.6
20260901203047 19 270 0.0 0.0 0.00 0.00 0.00 76 1014.5
20260901201542 19 272 0.0 0.0 0.00 0.00 0.00 77 1014.5
20260901200114 19 272 0.0 0.0 0.00 0.00 0.00 77 1014.4
20260901194604 19 272 0.0 0.0 0.00 0.00 0.00 77 1014.2
20260901193048 19 272 0.0 0.0 0.00 0.00 0.00 77 1014.0
20260901191634 20 272 0.0 0.0 0.00 0.00 0.00 76 1013.8
20260901190050 20 272 0.0 0.0 0.00 0.00 0.00 74 1013.8
20260901184541 20 272 0.0 0.0 0.00 0.00 0.00 75 1013.5
20260901183056 20 273 0.0 0.0 0.00 0.00 0.00 76 1013.5
20260901181610 20 273 0.0 0.0 0.00 0.00 0.00 75 1013.4
20260901180040 20 273 0.0 0.0 0.00 0.00 0.00 74 1013.3
20260901174559 20 273 0.0 0.0 0.00 0.00 0.00 76 1013.1
20260901173039 21 275 0.0 0.0 0.00 0.00 0.00 76 1013.0
20260901171528 21 276 0.0 0.0 0.00 0.00 0.00 78 1012.9
20260901170010 21 325 0.0 0.0 0.00 0.00 0.00 78 1013.0
20260901164621 21 324 0.0 0.0 0.00 0.00 0.00 74 1013.0
20260901163058 23 326 0.0 0.0 0.00 0.00 0.00 71 1013.1
20260901161554 25 276 0.0 0.0 0.00 0.00 0.00 60 1013.2
20260901154556 25 229 0.0 0.0 0.00 0.00 0.00 55 1013.1
20260901153059 26 228 0.0 0.0 0.00 0.00 0.00 54 1013.1
20260901150109 26 225 0.0 0.0 0.00 0.00 0.00 49 1013.2
20260901144549 27 157 0.0 0.0 0.00 0.00 0.00 46 1013.1
20260901143047 27 98 0.0 0.0 0.00 0.00 0.00 47 1013.2
20260901141600 27 168 0.0 0.0 0.00 0.00 0.00 46 1013.2
20260901140127 27 117 0.0 0.0 0.00 0.00 0.00 46 1013.3
20260901134542 27 92 0.0 0.0 0.00 0.00 0.00 47 1013.3
20260901133050 27 43 0.0 0.0 0.00 0.00 0.00 47 1013.4
20260901131547 26 40 0.0 0.0 0.00 0.00 0.00 49 1013.6
20260901130147 27 331 0.0 0.0 0.00 0.00 0.00 49 1013.6
20260901124538 26 88 0.0 0.0 0.00 0.00 0.00 49 1013.8
20260901123018 26 132 0.0 0.0 0.00 0.00 0.00 47 1013.9
20260901121509 26 355 0.0 0.0 0.00 0.00 0.00 48 1014.1
20260901120016 26 63 0.0 0.0 0.00 0.00 0.00 49 1014.1
20260901114600 26 134 0.0 0.0 0.00 0.00 0.00 50 1014.2
20260901113051 26 274 0.0 0.0 0.00 0.00 0.00 50 1014.4
20260901111542 25 97 0.0 0.0 0.00 0.00 0.00 55 1014.6
20260901110051 25 167 0.0 0.0 0.00 0.00 0.00 59 1014.6